SCP
0 0 0 0 0 0 0 0 0 -0 -0 -0 0 -0 0 -0 -0 0 0 0 0 -0 -0 -0 -0 -0 0 0 0 0 0 0 0 0 0 0 0 0 0 0 0 0 0 0 0 0 0 0 0 0 0 0 0 0
0 0 0 0 0 0 0 0 0 0 -0 -0 -0 -0 -0 0 -0 0 0 0 0 0 0 0 -0 0 0 0 0 0 0 0 0 0 0 0 0 0 0 0 0 0 0 0 0 0 0 0 0 0 0 0 0 0
0 0 0 0 0 0 0 0 0 0 -0 -0 -0 -0 -0 0 -0 -0 0 0 0 0 0 0 0 0 0 0 0 0 0 0 0 0 0 0 0 0 0 0 0 0 0 0 0 0 0 0 0 0 0 0 0 0
0 0 0 0 0 0 0 0 0 0 0 -0 -0 -0 -0 0 -0 -0 -0 0 0 0 0 0 0 0 0 0 0 0 0 0 0 0 0 0 0 0 0 0 0 0 0 0 0 0 0 0 0 0 0 0 0 0
0 0 0 0 0 0 0 0 0 0 -0 -0 -0 -0 -0 -0 -0 -0 -0 -0 0 0 0 0 0 0 0 0 0 0 0 0 0 0 0 0 0 0 0 0 0 0 0 0 0 0 0 0 0 0 0 0 0 0
0 0 0 0 0 0 0 -0 -0 -0 -0 -0 -0 -0 -0 0 -0 -0 -0 -0 0 0 0 0 0 0 0 0 0 0 0 0 0 0 0 0 0 0 0 0 0 0 0 0 0 0 0 0 0 0 0 0 0 0
0 0 0 0 0 0 0 -0 -0 -0 -0 -0 -0 -0 -0 0 0 0 0 0 0 -0 0 0 0 0 0 0 0 0 0 0 0 0 0 0 0 0 0 0 0 0 0 0 0 0 0 0 0 0 0 0 0 0
0 0 0 0 0 0 0 -0 -0 -0 -0 -0 -0 -0 -0 -0 0 0 0 0 0 0 0 0 0 0 0 0 0 0 0 0 0 0 0 0 0 0 0 0 0 0 0 0 0 0 0 0 0 0 0 0 0 0
0 0 0 0 0 0 0 -0 -0 -0 0 -0 -0 -0 0 -0 0 -0 -0 0 0 0 0 0 0 0 0 0 0 0 0 0 0 0 0 0 0 0 0 0 0 0 0 0 0 0 0 0 0 0 0 0 0 0
0 0 0 0 0 0 0 0 0 0 -0 -0 -0 0 0 -0 -0 -0 0 0 0 0 0 0 0 0 0 0 0 0 0 0 0 0 0 0 0 0 0 0 0 0 0 0 0 0 0 0 0 0 0 0 0 0
0 0 0 0 0 0 0 0 0 0 0 0 0 0 -0 -0 -0 -0 0 0 0 0 0 0 0 0 0 0 0 0 0 0 0 0 0 0 0 0 0 0 0 0 0 0 0 0 0 0 0 0 0 0 0 0
0 0 0 0 0 0 0 0 0 0 0 0 0 0 0 0 0 0 0 0 0 0 0 0 0 0 0 0 0 0 0 0 0 0 0 0 0 0 0 0 0 0 0 0 0 0 0 0 0 0 0 0 0 0
0 0 0 0 0 0 0 0 0 0 0 0 0 0 0 0 0 0 0 0 0 0 -0 -0 -0 -0 -0 -0 0 0 0 0 0 0 0 0 0 0 0 0 0 0 0 0 0 0 0 0 0 0 0 0 0 0
0 0 0 0 0 0 0 0 0 0 0 0 0 0 0 0 0 0 0 0 0 0 0 0 -0 -0 -0 -0 -0 0 0 0 0 0 0 0 0 0 0 0 0 0 0 0 0 0 0 0 0 0 0 0 0 0
0 0 0 0 0 0 0 0 0 0 0 0 0 0 0 0 0 0 0 0 0 0 0 0 0 -0 0 0 0 0 0 0 0 0 0 0 0 0 0 0 0 0 0 0 0 0 0 0 0 0 0 0 0 0
0 0 0 0 0 0 0 0 0 0 0 0 0 0 0 0 0 0 0 0 0 0 0 0 0 0 0 0 0 0 0 0 0 0 0 0 0 0 0 0 0 0 0 0 0 0 0 0 0 0 0 0 0 0
0 0 0 0 0 0 0 0 0 0 0 0 0 0 0 0 0 0 0 0 0 0 0 0 0 0 0 0 0 0 0 0 0 0 0 0 0 0 0 0 0 0 0 0 0 0 0 0 0 0 0 0 0 0
0 0 0 0 0 0 0 0 0 0 0 0 0 0 0 0 0 0 0 0 0 0 0 0 0 0 0 0 0 0 0 0 0 0 0 0 0 0 0 0 0 0 0 0 0 0 0 0 0 0 0 0 0 0
0 0 0 0 0 0 0 0 0 0 0 0 0 0 0 0 0 0 0 0 0 0 0 0 0 0 0 0 0 0 0 0 0 0 0 0 0 0 0 0 0 0 0 0 0 0 0 0 0 0 0 0 0 0
0 0 0 0 0 0 0 0 0 0 0 0 0 0 0 0 0 0 0 0 0 0 0 0 0 0 0 0 0 0 0 0 0 0 0 0 0 0 0 0 0 0 0 0 0 0 0 0 0 0 0 0 0 0
0 0 0 0 0 0 0 0 0 0 0 0 0 0 0 0 0 0 0 0 0 0 0 0 0 0 0 0 0 0 0 0 0 0 0 0 0 0 0 0 0 0 0 0 0 0 0 0 0 0 0 0 0 0
0 0 0 0 0 0 0 0 0 0 0 0 0 0 0 0 0 0 0 0 0 0 0 0 0 0 0 0 0 0 0 0 0 0 0 0 0 0 0 0 0 0 0 0 0 0 0 0 0 0 0 0 0 0
0 0 0 0 0 0 0 0 0 0 0 0 0 0 0 0 0 0 0 0 0 0 0 0 0 0 0 0 0 0 0 0 0 0 0 0 0 0 0 0 0 0 0 0 0 0 0 0 0 0 0 0 0 0
0 0 0 0 0 0 0 0 0 0 0 0 0 0 0 0 0 0 0 0 0 0 0 0 0 0 0 0 0 0 0 0 0 0 0 0 0 0 0 0 0 0 0 0 0 0 0 0 0 0 0 0 0 0
0 0 0 0 0 0 0 0 0 0 0 0 0 0 0 0 0 0 0 0 0 0 0 0 0 0 0 0 0 0 0 0 0 0 0 0 0 0 0 0 0 0 0 0 0 0 0 0 0 0 0 0 0 0
0 0 0 0 0 0 0 0 0 0 0 0 0 0 0 0 0 0 0 0 0 0 0 0 0 0 0 0 0 0 0 0 0 0 0 0 0 0 0 0 0 0 0 0 0 0 0 0 0 0 0 0 0 0
0 0 0 0 0 0 0 0 0 0 0 0 0 0 0 0 0 0 0 0 0 0 0 0 0 0 0 0 0 0 0 0 0 0 0 0 0 0 0 0 0 0 0 0 0 0 0 0 0 0 0 0 0 0
0 0 0 0 0 0 0 0 0 0 0 0 0 0 0 0 0 0 0 0 0 0 0 0 0 0 0 0 0 0 0 0 0 0 0 0 0 0 0 0 0 0 0 0 0 0 0 0 0 0 0 0 0 0
0 0 0 0 0 0 0 0 0 0 0 0 0 0 0 0 0 0 0 0 0 0 0 0 0 0 0 0 0 0 0 0 0 0 0 0 0 0 0 0 0 0 0 0 0 0 0 0 0 0 0 0 0 0
0 0 0 0 0 0 0 0 0 0 0 0 0 0 0 0 0 0 0 0 0 0 0 0 0 0 0 0 0 0 0 0 0 0 0 0 0 0 0 0 0 0 0 0 0 0 0 0 0 0 0 0 0 0
0 0 0 0 0 0 0 0 0 0 0 0 0 0 0 0 0 0 0 0 0 0 0 0 0 0 0 0 0 0 0 0 0 0 0 0 0 0 0 0 0 0 0 0 0 0 0 0 0 0 0 0 0 0
0 0 0 0 0 0 0 0 0 0 0 0 0 0 0 0 0 0 0 0 0 0 0 0 0 0 0 0 0 0 0 0 0 0 0 0 0 0 0 0 0 0 0 0 0 0 0 0 0 0 0 0 0 0
0 0 0 0 0 0 0 0 0 0 0 0 0 0 0 0 0 0 0 0 0 0 0 0 0 0 0 0 0 0 0 0 0 0 0 0 0 0 0 0 0 0 0 0 0 0 0 0 0 0 0 0 0 0
Wind_Speed_500mb
49 48 44 53 52 54 55 53 52 42 38 33 29 40 42 55 17 34 24 27 24 10 13 21 17 17 38 57 11 22 21 8 10 13 13 9 10 22 20 36 38 27 17 11 13 20 30 30 20 45 25 28 21 22
48 46 44 49 47 52 51 48 43 36 34 31 28 30 40 38 44 9 12 29 30 12 8 22 35 25 49 34 65 35 12 11 9 10 7 9 6 9 29 24 16 22 26 23 19 16 24 25 31 47 53 32 27 33
48 45 42 39 42 45 48 43 39 34 33 32 33 26 24 32 42 33 26 14 24 14 6 12 24 27 20 7 50 10 13 26 19 16 9 5 8 13 16 33 26 19 22 12 7 32 29 30 34 24 30 33 19 16
46 43 38 35 34 37 41 39 36 32 29 30 32 34 24 19 20 31 30 24 10 10 3 5 51 59 36 5 35 36 35 29 38 16 6 5 7 7 14 3 16 10 29 28 31 35 4 26 38 31 27 20 16 14
43 42 31 31 27 30 30 32 35 35 32 29 30 28 37 20 16 11 14 33 16 8 4 5 19 49 53 28 17 39 56 48 21 8 4 3 5 7 3 5 10 13 17 24 21 26 24 26 27 36 35 27 26 21
45 40 30 26 28 27 27 32 34 37 35 30 28 28 30 38 7 11 4 12 11 19 7 4 13 28 39 54 55 41 31 24 12 8 5 7 3 2 7 7 8 15 11 16 12 5 12 10 11 20 27 27 25 23
43 42 32 24 26 30 29 33 34 36 37 30 28 26 26 23 18 7 8 21 16 9 8 5 4 13 24 20 31 27 36 20 12 8 5 4 4 4 1 7 6 4 8 14 10 5 8 16 13 25 27 28 29 29
40 45 32 27 31 30 31 35 34 35 40 32 29 23 20 15 12 11 20 27 14 8 8 4 3 4 23 13 7 18 11 12 18 6 5 4 6 1 3 2 7 8 3 3 8 12 9 11 16 14 20 27 34 39
36 41 23 33 37 34 33 39 36 31 39 28 22 15 12 11 9 11 11 16 24 13 4 5 5 4 14 8 7 9 9 6 5 6 5 6 3 3 5 6 5 4 9 9 7 6 7 13 17 22 30 36 42 43
35 37 19 28 37 35 33 37 38 30 32 22 12 3 1 12 18 8 6 6 10 12 10 6 5 3 9 4 4 1 5 4 4 5 5 3 2 4 9 7 5 4 5 7 4 10 9 13 19 26 34 36 38 48
33 37 25 22 31 36 32 33 33 29 21 13 12 5 15 15 4 2 3 4 3 5 3 5 6 2 7 4 5 6 3 0 4 5 2 2 4 5 10 11 9 8 13 15 12 8 7 4 6 15 19 28 40 43
32 34 31 22 25 33 30 29 30 24 18 17 15 14 10 6 1 3 4 4 1 4 6 3 4 3 0 3 2 2 3 1 7 2 2 4 4 5 13 14 13 12 7 8 11 14 16 15 11 12 15 20 30 37
33 30 31 18 26 24 25 24 24 21 18 7 4 5 5 2 4 6 9 7 9 9 10 12 8 5 9 3 4 2 3 6 4 1 4 6 12 14 16 17 14 11 10 5 9 12 17 23 25 23 20 20 23 27
30 28 23 24 28 22 20 21 24 17 6 4 4 6 4 3 3 1 3 8 9 10 11 8 7 3 3 3 1 4 4 3 4 6 19 12 23 21 17 17 17 14 12 11 8 9 14 19 25 34 34 28 29 33
27 26 27 25 27 24 18 21 21 12 4 5 5 6 6 1 2 2 1 5 6 5 4 5 4 1 3 4 3 5 4 4 2 9 11 17 19 19 14 15 17 19 17 13 12 12 12 15 22 24 30 33 31 32
23 29 23 16 13 10 15 20 16 6 5 5 8 6 6 6 8 5 7 10 7 7 4 2 1 1 2 3 5 6 7 5 7 7 11 14 19 19 17 16 17 16 15 17 19 20 19 17 17 21 26 29 25 22
21 21 17 11 9 13 17 16 5 6 6 6 6 13 12 7 12 15 15 12 10 7 3 2 5 5 3 5 7 6 4 8 10 6 5 13 16 20 20 20 24 23 19 16 17 18 18 17 17 19 22 28 27 29
34 27 15 10 14 15 17 7 6 6 9 14 8 15 18 12 11 14 14 13 11 8 6 2 1 7 7 6 6 7 8 7 8 4 4 8 13 17 18 19 19 20 20 18 15 15 16 12 8 10 14 20 23 29
32 26 17 15 16 7 5 6 7 7 12 8 14 13 15 10 19 11 16 16 14 10 10 5 7 7 12 2 7 14 11 4 2 4 3 8 14 18 18 19 18 18 17 18 16 12 13 16 17 15 16 21 22 26
29 28 22 21 20 7 7 7 9 10 6 5 12 15 13 12 16 21 19 20 20 11 9 8 9 6 6 11 13 15 10 4 2 4 3 10 16 18 19 20 20 22 20 16 15 17 15 17 19 22 23 24 25 28
25 31 25 28 27 30 12 11 12 10 8 9 6 16 9 13 18 23 22 24 21 10 9 21 16 17 17 20 17 16 12 8 5 2 4 8 12 14 17 19 20 19 19 19 18 16 13 18 24 25 32 37 38 34
28 28 28 30 15 14 16 22 11 6 9 8 7 14 8 9 11 20 22 20 12 27 24 20 23 25 25 24 21 17 15 12 8 4 4 6 10 14 16 19 21 22 21 21 21 22 22 24 28 27 29 38 36 38
28 31 19 17 14 13 7 22 16 14 9 6 9 8 7 7 10 22 9 18 17 22 23 20 24 27 25 26 23 18 15 14 10 5 3 7 10 13 15 18 18 22 23 21 20 22 25 28 29 31 33 34 39 45
47 24 17 15 26 8 14 15 14 9 12 9 6 6 6 6 15 8 7 7 12 18 27 28 32 32 27 25 23 20 18 13 8 3 2 8 14 18 21 24 23 22 22 25 23 23 26 28 30 30 31 32 29 38
15 18 14 13 19 15 13 13 12 10 9 9 14 7 6 11 8 8 6 7 21 28 31 36 36 36 32 26 23 21 17 11 7 5 8 13 20 25 27 27 27 26 24 23 24 27 29 30 30 29 30 33 33 30
17 28 23 16 13 13 13 13 15 16 8 9 9 6 8 6 6 10 7 12 18 31 44 50 46 37 28 27 26 21 14 9 8 11 13 12 15 19 25 28 29 27 20 22 29 33 36 36 36 38 37 36 34 37
13 13 10 11 11 15 8 5 8 5 11 10 8 9 7 9 12 6 4 8 7 13 31 35 34 30 30 27 19 14 10 10 10 11 14 15 15 17 16 17 20 26 32 36 37 36 40 44 44 44 44 43 38 37
7 14 15 20 10 11 8 9 12 13 8 11 15 10 11 10 4 0 2 4 5 19 33 33 27 26 24 18 13 11 10 9 10 13 11 10 13 18 21 21 29 39 41 42 42 43 44 45 49 51 51 52 55 48
5 21 22 8 6 7 9 10 12 12 16 20 12 8 6 5 2 3 7 14 24 34 39 41 37 26 17 14 13 12 11 10 9 11 10 12 13 12 23 30 32 34 36 39 38 37 41 46 51 54 54 55 57 55
2 6 6 9 12 10 7 8 11 11 9 12 10 7 6 4 8 7 14 21 28 29 28 26 24 20 19 17 16 15 16 14 13 13 11 14 16 24 27 27 28 29 30 31 35 40 41 43 46 45 41 45 46 45
3 4 5 5 6 7 6 11 12 11 9 5 8 4 6 5 8 13 25 28 29 28 25 21 20 20 20 18 16 16 15 16 16 17 18 19 19 19 21 23 25 26 29 33 37 41 44 43 40 37 34 33 31 30
7 6 4 4 5 6 8 5 4 4 3 4 4 4 5 6 9 7 20 32 31 27 24 21 18 18 19 18 16 15 15 13 13 12 11 11 13 17 19 20 21 24 27 29 30 31 32 32 29 24 17 13 10 7
5 7 7 6 5 5 3 4 3 4 3 3 4 2 2 3 4 5 6 12 14 16 18 20 19 17 17 14 12 10 9 8 6 5 4 6 9 11 14 15 17 18 19 19 18 19 22 24 24 23 22 23 25 27
Wind_Direction_500mb
336 338 337 338 347 351 347 343 344 344 348 354 2 6 7 11 245 224 239 236 239 208 265 276 289 292 225 198 187 154 130 167 170 158 182 163 206 205 222 197 182 183 168 190 201 216 235 224 168 211 231 248 247 256
335 336 342 342 355 353 348 348 354 352 356 2 2 10 25 24 31 294 226 198 199 216 255 274 268 306 322 216 191 175 155 152 153 134 189 147 174 173 210 203 215 222 214 207 196 213 242 219 221 222 235 249 247 242
333 335 342 348 358 354 355 355 1 2 3 9 6 352 345 8 25 27 36 212 219 218 19 39 336 344 15 340 180 139 162 167 168 143 133 143 176 182 181 217 205 231 215 226 192 246 245 235 225 230 211 223 228 248
334 331 340 347 356 355 358 2 3 4 360 2 9 10 346 331 342 21 49 41 143 128 129 17 33 17 18 338 203 194 187 159 151 139 90 166 168 223 202 173 190 176 183 204 229 239 293 228 224 210 211 205 206 203
327 330 333 341 346 351 349 350 355 355 352 348 354 356 10 336 285 312 8 40 50 110 75 343 12 23 29 79 130 156 162 148 126 104 133 142 104 130 89 94 203 193 188 201 225 225 219 263 223 215 209 205 209 221
327 328 322 329 331 335 339 331 339 348 347 338 339 351 356 5 269 284 282 24 29 61 87 55 344 2 13 48 67 88 118 109 92 97 90 84 75 188 160 183 100 207 231 252 267 234 202 159 144 192 205 211 209 211
322 322 315 314 317 323 330 323 322 334 342 335 332 333 345 12 41 53 23 340 24 107 115 108 359 337 4 14 27 34 51 65 72 78 58 75 97 41 59 182 35 341 255 243 253 209 220 233 232 217 220 225 216 221
322 320 321 324 315 309 320 322 318 324 336 326 322 320 329 344 29 27 21 25 26 57 70 86 34 349 6 4 22 16 40 44 36 67 118 76 111 89 128 43 15 16 57 94 256 230 265 279 220 212 190 180 170 165
316 319 335 323 318 314 308 313 326 323 335 330 322 303 315 342 346 342 358 24 38 43 44 38 11 20 353 28 9 14 14 64 20 46 50 313 104 96 112 56 119 37 38 37 43 202 219 205 197 182 169 168 162 158
310 317 303 321 322 318 318 317 324 325 334 335 333 327 331 327 322 324 8 11 26 30 41 40 353 1 333 354 75 24 23 65 93 57 304 21 68 323 326 296 281 275 11 25 105 110 132 163 174 170 166 165 166 159
305 310 293 306 320 322 321 327 332 340 342 347 350 309 303 327 15 313 43 30 78 97 56 47 0 33 355 345 56 6 73 18 114 79 312 73 80 74 25 16 356 307 274 271 280 297 343 336 232 192 176 169 169 169
295 301 305 291 313 319 322 330 336 345 345 326 314 303 322 334 262 142 104 144 201 101 140 177 96 15 288 307 221 19 70 306 80 84 120 107 119 26 4 3 357 354 311 264 254 254 259 270 273 252 245 242 234 225
288 293 300 302 309 310 317 335 340 327 326 321 288 271 305 312 220 195 155 143 147 159 170 181 170 192 183 201 104 169 127 73 165 128 82 60 19 2 0 360 5 8 14 337 286 276 267 253 249 253 258 260 257 247
281 289 290 294 297 295 303 330 338 337 315 272 282 275 263 204 227 252 125 115 113 137 149 167 144 184 171 123 338 110 78 186 99 108 90 58 25 5 358 357 1 359 360 2 340 293 285 271 255 245 244 246 249 244
279 286 284 284 284 282 285 318 329 326 262 258 242 246 221 323 221 79 8 147 114 119 129 129 115 260 93 96 52 111 129 118 84 91 83 13 359 358 1 2 1 1 360 349 323 303 293 277 253 254 248 243 245 238
285 291 294 289 292 269 293 315 317 273 244 234 233 221 201 213 171 188 177 144 135 126 94 68 113 129 174 136 167 187 164 162 116 80 59 29 28 24 22 12 0 344 339 330 323 312 301 285 259 243 235 232 234 230
257 257 281 292 278 282 305 314 268 238 243 227 224 229 222 259 208 180 176 164 161 180 187 174 202 200 123 206 199 186 195 112 123 100 42 25 21 15 13 9 9 0 344 325 316 317 307 287 264 240 230 228 214 202
246 268 256 257 276 294 297 231 245 241 247 224 226 214 206 227 201 190 191 181 182 199 189 234 72 217 218 204 193 135 136 126 136 68 24 11 0 360 357 353 349 351 347 328 315 309 300 287 249 200 184 192 188 192
257 258 249 241 244 258 258 228 216 258 241 235 236 216 208 223 216 208 199 187 183 177 167 185 233 239 234 197 127 147 143 132 147 330 343 9 6 3 1 351 344 340 336 332 316 300 288 273 257 242 217 208 206 218
266 240 224 222 233 233 245 224 213 250 250 229 221 211 207 206 198 200 191 187 185 188 195 210 218 201 180 158 149 151 147 144 3 334 352 357 357 357 354 357 349 341 337 328 317 303 293 283 269 250 238 236 236 235
250 235 227 228 220 230 228 212 219 234 255 239 241 210 205 195 198 190 189 190 203 217 226 225 207 172 155 157 154 149 145 138 132 99 330 332 344 348 345 347 349 347 345 335 329 326 294 278 270 272 260 254 252 242
238 234 215 221 228 221 234 214 217 192 218 240 215 208 210 206 196 197 182 193 231 232 232 218 200 180 172 172 167 159 155 145 140 131 37 2 345 343 342 341 343 342 343 340 338 333 323 300 276 254 260 265 257 244
211 210 194 201 218 228 233 184 193 203 220 211 190 206 207 197 193 165 204 215 234 219 210 203 192 182 177 170 162 159 161 160 158 141 32 348 338 333 329 327 326 323 321 321 322 323 321 318 310 297 281 257 253 246
195 178 194 209 209 208 168 193 201 205 207 196 203 213 207 183 167 213 231 214 213 205 194 182 175 169 169 172 176 178 173 166 162 156 330 326 316 312 311 307 307 307 305 305 308 308 312 315 315 312 305 290 273 253
167 193 210 208 198 186 181 179 189 203 218 184 183 183 192 183 203 221 226 226 207 197 189 184 185 185 183 184 179 174 172 177 199 258 299 309 307 308 305 303 299 295 296 300 302 306 308 309 307 305 300 299 294 272
198 203 200 201 179 176 171 172 194 209 173 172 193 127 166 182 228 239 217 224 203 195 191 185 179 178 180 180 174 176 186 201 247 274 295 299 304 302 300 300 303 299 290 298 308 306 305 305 304 302 298 293 293 291
214 195 161 155 151 130 129 125 137 158 178 186 160 154 160 202 227 241 289 265 224 209 186 179 177 175 169 164 166 186 228 262 248 256 279 297 300 303 298 293 290 288 298 305 305 302 301 302 301 300 297 293 284 283
171 167 159 154 138 157 142 164 176 184 173 160 151 185 190 209 234 358 272 204 176 153 159 162 159 155 159 170 196 228 243 249 262 282 287 279 289 302 297 295 295 296 298 301 304 304 302 300 299 297 294 291 288 283
138 149 137 140 131 164 189 185 200 187 165 169 180 190 211 207 206 125 137 145 148 156 163 168 172 181 196 219 230 234 233 239 244 248 260 277 286 293 293 305 305 308 306 303 303 305 304 301 300 297 293 289 287 286
143 157 124 156 162 180 159 194 162 142 149 157 146 139 145 139 176 168 166 164 163 167 171 177 194 216 229 225 228 236 240 250 257 258 272 284 291 302 308 312 316 317 319 320 319 318 315 310 306 302 294 286 284 284
96 109 90 76 73 45 86 119 124 127 133 138 158 185 162 142 188 192 186 182 184 187 197 215 232 232 218 222 226 228 237 250 261 270 280 290 300 310 316 319 321 323 325 325 326 326 326 325 321 314 305 293 289 287
36 50 97 93 87 65 81 74 98 105 81 149 108 118 140 168 180 204 213 214 218 226 234 233 226 216 210 210 216 227 242 255 263 270 281 301 312 314 319 325 328 330 331 331 332 335 340 344 343 337 328 322 327 312
59 59 79 105 128 148 95 137 100 107 100 109 96 84 161 198 207 237 209 202 204 197 198 196 190 188 193 200 212 224 229 233 242 260 284 307 319 332 344 348 350 351 351 353 360 12 22 29 35 43 57 72 81 90
Wind_Speed_850mb
49 48 44 53 52 54 55 53 52 42 38 33 29 40 42 55 17 34 24 27 24 10 13 21 17 17 38 57 11 22 21 8 10 13 13 9 10 22 20 36 38 27 17 11 13 20 30 30 20 45 25 28 21 22
48 46 44 49 47 52 51 48 43 36 34 31 28 30 40 38 44 9 12 29 30 12 8 22 35 25 49 34 65 35 12 11 9 10 7 9 6 9 29 24 16 22 26 23 19 16 24 25 31 47 53 32 27 33
48 45 42 39 42 45 48 43 39 34 33 32 33 26 24 32 42 33 26 14 24 14 6 12 24 27 20 7 50 10 13 26 19 16 9 5 8 13 16 33 26 19 22 12 7 32 29 30 34 24 30 33 19 16
46 43 38 35 34 37 41 39 36 32 29 30 32 34 24 19 20 31 30 24 10 10 3 5 51 59 36 5 35 36 35 29 38 16 6 5 7 7 14 3 16 10 29 28 31 35 4 26 38 31 27 20 16 14
43 42 31 31 27 30 30 32 35 35 32 29 30 28 37 20 16 11 14 33 16 8 4 5 19 49 53 28 17 39 56 48 21 8 4 3 5 7 3 5 10 13 17 24 21 26 24 26 27 36 35 27 26 21
45 40 30 26 28 27 27 32 34 37 35 30 28 28 30 38 7 11 4 12 11 19 7 4 13 28 39 54 55 41 31 24 12 8 5 7 3 2 7 7 8 15 11 16 12 5 12 10 11 20 27 27 25 23
43 42 32 24 26 30 29 33 34 36 37 30 28 26 26 23 18 7 8 21 16 9 8 5 4 13 24 20 31 27 36 20 12 8 5 4 4 4 1 7 6 4 8 14 10 5 8 16 13 25 27 28 29 29
40 45 32 27 31 30 31 35 34 35 40 32 29 23 20 15 12 11 20 27 14 8 8 4 3 4 23 13 7 18 11 12 18 6 5 4 6 1 3 2 7 8 3 3 8 12 9 11 16 14 20 27 34 39
36 41 23 33 37 34 33 39 36 31 39 28 22 15 12 11 9 11 11 16 24 13 4 5 5 4 14 8 7 9 9 6 5 6 5 6 3 3 5 6 5 4 9 9 7 6 7 13 17 22 30 36 42 43
35 37 19 28 37 35 33 37 38 30 32 22 12 3 1 12 18 8 6 6 10 12 10 6 5 3 9 4 4 1 5 4 4 5 5 3 2 4 9 7 5 4 5 7 4 10 9 13 19 26 34 36 38 48
33 37 25 22 31 36 32 33 33 29 21 13 12 5 15 15 4 2 3 4 3 5 3 5 6 2 7 4 5 6 3 0 4 5 2 2 4 5 10 11 9 8 13 15 12 8 7 4 6 15 19 28 40 43
32 34 31 22 25 33 30 29 30 24 18 17 15 14 10 6 1 3 4 4 1 4 6 3 4 3 0 3 2 2 3 1 7 2 2 4 4 5 13 14 13 12 7 8 11 14 16 15 11 12 15 20 30 37
33 30 31 18 26 24 25 24 24 21 18 7 4 5 5 2 4 6 9 7 9 9 10 12 8 5 9 3 4 2 3 6 4 1 4 6 12 14 16 17 14 11 10 5 9 12 17 23 25 23 20 20 23 27
30 28 23 24 28 22 20 21 24 17 6 4 4 6 4 3 3 1 3 8 9 10 11 8 7 3 3 3 1 4 4 3 4 6 19 12 23 21 17 17 17 14 12 11 8 9 14 19 25 34 34 28 29 33
27 26 27 25 27 24 18 21 21 12 4 5 5 6 6 1 2 2 1 5 6 5 4 5 4 1 3 4 3 5 4 4 2 9 11 17 19 19 14 15 17 19 17 13 12 12 12 15 22 24 30 33 31 32
23 29 23 16 13 10 15 20 16 6 5 5 8 6 6 6 8 5 7 10 7 7 4 2 1 1 2 3 5 6 7 5 7 7 11 14 19 19 17 16 17 16 15 17 19 20 19 17 17 21 26 29 25 22
21 21 17 11 9 13 17 16 5 6 6 6 6 13 12 7 12 15 15 12 10 7 3 2 5 5 3 5 7 6 4 8 10 6 5 13 16 20 20 20 24 23 19 16 17 18 18 17 17 19 22 28 27 29
34 27 15 10 14 15 17 7 6 6 9 14 8 15 18 12 11 14 14 13 11 8 6 2 1 7 7 6 6 7 8 7 8 4 4 8 13 17 18 19 19 20 20 18 15 15 16 12 8 10 14 20 23 29
32 26 17 15 16 7 5 6 7 7 12 8 14 13 15 10 19 11 16 16 14 10 10 5 7 7 12 2 7 14 11 4 2 4 3 8 14 18 18 19 18 18 17 18 16 12 13 16 17 15 16 21 22 26
29 28 22 21 20 7 7 7 9 10 6 5 12 15 13 12 16 21 19 20 20 11 9 8 9 6 6 11 13 15 10 4 2 4 3 10 16 18 19 20 20 22 20 16 15 17 15 17 19 22 23 24 25 28
25 31 25 28 27 30 12 11 12 10 8 9 6 16 9 13 18 23 22 24 21 10 9 21 16 17 17 20 17 16 12 8 5 2 4 8 12 14 17 19 20 19 19 19 18 16 13 18 24 25 32 37 38 34
28 28 28 30 15 14 16 22 11 6 9 8 7 14 8 9 11 20 22 20 12 27 24 20 23 25 25 24 21 17 15 12 8 4 4 6 10 14 16 19 21 22 21 21 21 22 22 24 28 27 29 38 36 38
28 31 19 17 14 13 7 22 16 14 9 6 9 8 7 7 10 22 9 18 17 22 23 20 24 27 25 26 23 18 15 14 10 5 3 7 10 13 15 18 18 22 23 21 20 22 25 28 29 31 33 34 39 45
47 24 17 15 26 8 14 15 14 9 12 9 6 6 6 6 15 8 7 7 12 18 27 28 32 32 27 25 23 20 18 13 8 3 2 8 14 18 21 24 23 22 22 25 23 23 26 28 30 30 31 32 29 38
15 18 14 13 19 15 13 13 12 10 9 9 14 7 6 11 8 8 6 7 21 28 31 36 36 36 32 26 23 21 17 11 7 5 8 13 20 25 27 27 27 26 24 23 24 27 29 30 30 29 30 33 33 30
17 28 23 16 13 13 13 13 15 16 8 9 9 6 8 6 6 10 7 12 18 31 44 50 46 37 28 27 26 21 14 9 8 11 13 12 15 19 25 28 29 27 20 22 29 33 36 36 36 38 37 36 34 37
13 13 10 11 11 15 8 5 8 5 11 10 8 9 7 9 12 6 4 8 7 13 31 35 34 30 30 27 19 14 10 10 10 11 14 15 15 17 16 17 20 26 32 36 37 36 40 44 44 44 44 43 38 37
7 14 15 20 10 11 8 9 12 13 8 11 15 10 11 10 4 0 2 4 5 19 33 33 27 26 24 18 13 11 10 9 10 13 11 10 13 18 21 21 29 39 41 42 42 43 44 45 49 51 51 52 55 48
5 21 22 8 6 7 9 10 12 12 16 20 12 8 6 5 2 3 7 14 24 34 39 41 37 26 17 14 13 12 11 10 9 11 10 12 13 12 23 30 32 34 36 39 38 37 41 46 51 54 54 55 57 55
2 6 6 9 12 10 7 8 11 11 9 12 10 7 6 4 8 7 14 21 28 29 28 26 24 20 19 17 16 15 16 14 13 13 11 14 16 24 27 27 28 29 30 31 35 40 41 43 46 45 41 45 46 45
3 4 5 5 6 7 6 11 12 11 9 5 8 4 6 5 8 13 25 28 29 28 25 21 20 20 20 18 16 16 15 16 16 17 18 19 19 19 21 23 25 26 29 33 37 41 44 43 40 37 34 33 31 30
7 6 4 4 5 6 8 5 4 4 3 4 4 4 5 6 9 7 20 32 31 27 24 21 18 18 19 18 16 15 15 13 13 12 11 11 13 17 19 20 21 24 27 29 30 31 32 32 29 24 17 13 10 7
5 7 7 6 5 5 3 4 3 4 3 3 4 2 2 3 4 5 6 12 14 16 18 20 19 17 17 14 12 10 9 8 6 5 4 6 9 11 14 15 17 18 19 19 18 19 22 24 24 23 22 23 25 27
Wind_Direction_850mb
336 338 337 338 347 351 347 343 344 344 348 354 2 6 7 11 245 224 239 236 239 208 265 276 289 292 225 198 187 154 130 167 170 158 182 163 206 205 222 197 182 183 168 190 201 216 235 224 168 211 231 248 247 256
335 336 342 342 355 353 348 348 354 352 356 2 2 10 25 24 31 294 226 198 199 216 255 274 268 306 322 216 191 175 155 152 153 134 189 147 174 173 210 203 215 222 214 207 196 213 242 219 221 222 235 249 247 242
333 335 342 348 358 354 355 355 1 2 3 9 6 352 345 8 25 27 36 212 219 218 19 39 336 344 15 340 180 139 162 167 168 143 133 143 176 182 181 217 205 231 215 226 192 246 245 235 225 230 211 223 228 248
334 331 340 347 356 355 358 2 3 4 360 2 9 10 346 331 342 21 49 41 143 128 129 17 33 17 18 338 203 194 187 159 151 139 90 166 168 223 202 173 190 176 183 204 229 239 293 228 224 210 211 205 206 203
327 330 333 341 346 351 349 350 355 355 352 348 354 356 10 336 285 312 8 40 50 110 75 343 12 23 29 79 130 156 162 148 126 104 133 142 104 130 89 94 203 193 188 201 225 225 219 263 223 215 209 205 209 221
327 328 322 329 331 335 339 331 339 348 347 338 339 351 356 5 269 284 282 24 29 61 87 55 344 2 13 48 67 88 118 109 92 97 90 84 75 188 160 183 100 207 231 252 267 234 202 159 144 192 205 211 209 211
322 322 315 314 317 323 330 323 322 334 342 335 332 333 345 12 41 53 23 340 24 107 115 108 359 337 4 14 27 34 51 65 72 78 58 75 97 41 59 182 35 341 255 243 253 209 220 233 232 217 220 225 216 221
322 320 321 324 315 309 320 322 318 324 336 326 322 320 329 344 29 27 21 25 26 57 70 86 34 349 6 4 22 16 40 44 36 67 118 76 111 89 128 43 15 16 57 94 256 230 265 279 220 212 190 180 170 165
316 319 335 323 318 314 308 313 326 323 335 330 322 303 315 342 346 342 358 24 38 43 44 38 11 20 353 28 9 14 14 64 20 46 50 313 104 96 112 56 119 37 38 37 43 202 219 205 197 182 169 168 162 158
310 317 303 321 322 318 318 317 324 325 334 335 333 327 331 327 322 324 8 11 26 30 41 40 353 1 333 354 75 24 23 65 93 57 304 21 68 323 326 296 281 275 11 25 105 110 132 163 174 170 166 165 166 159
305 310 293 306 320 322 321 327 332 340 342 347 350 309 303 327 15 313 43 30 78 97 56 47 0 33 355 345 56 6 73 18 114 79 312 73 80 74 25 16 356 307 274 271 280 297 343 336 232 192 176 169 169 169
295 301 305 291 313 319 322 330 336 345 345 326 314 303 322 334 262 142 104 144 201 101 140 177 96 15 288 307 221 19 70 306 80 84 120 107 119 26 4 3 357 354 311 264 254 254 259 270 273 252 245 242 234 225
288 293 300 302 309 310 317 335 340 327 326 321 288 271 305 312 220 195 155 143 147 159 170 181 170 192 183 201 104 169 127 73 165 128 82 60 19 2 0 360 5 8 14 337 286 276 267 253 249 253 258 260 257 247
281 289 290 294 297 295 303 330 338 337 315 272 282 275 263 204 227 252 125 115 113 137 149 167 144 184 171 123 338 110 78 186 99 108 90 58 25 5 358 357 1 359 360 2 340 293 285 271 255 245 244 246 249 244
279 286 284 284 284 282 285 318 329 326 262 258 242 246 221 323 221 79 8 147 114 119 129 129 115 260 93 96 52 111 129 118 84 91 83 13 359 358 1 2 1 1 360 349 323 303 293 277 253 254 248 243 245 238
285 291 294 289 292 269 293 315 317 273 244 234 233 221 201 213 171 188 177 144 135 126 94 68 113 129 174 136 167 187 164 162 116 80 59 29 28 24 22 12 0 344 339 330 323 312 301 285 259 243 235 232 234 230
257 257 281 292 278 282 305 314 268 238 243 227 224 229 222 259 208 180 176 164 161 180 187 174 202 200 123 206 199 186 195 112 123 100 42 25 21 15 13 9 9 0 344 325 316 317 307 287 264 240 230 228 214 202
246 268 256 257 276 294 297 231 245 241 247 224 226 214 206 227 201 190 191 181 182 199 189 234 72 217 218 204 193 135 136 126 136 68 24 11 0 360 357 353 349 351 347 328 315 309 300 287 249 200 184 192 188 192
257 258 249 241 244 258 258 228 216 258 241 235 236 216 208 223 216 208 199 187 183 177 167 185 233 239 234 197 127 147 143 132 147 330 343 9 6 3 1 351 344 340 336 332 316 300 288 273 257 242 217 208 206 218
266 240 224 222 233 233 245 224 213 250 250 229 221 211 207 206 198 200 191 187 185 188 195 210 218 201 180 158 149 151 147 144 3 334 352 357 357 357 354 357 349 341 337 328 317 303 293 283 269 250 238 236 236 235
250 235 227 228 220 230 228 212 219 234 255 239 241 210 205 195 198 190 189 190 203 217 226 225 207 172 155 157 154 149 145 138 132 99 330 332 344 348 345 347 349 347 345 335 329 326 294 278 270 272 260 254 252 242
238 234 215 221 228 221 234 214 217 192 218 240 215 208 210 206 196 197 182 193 231 232 232 218 200 180 172 172 167 159 155 145 140 131 37 2 345 343 342 341 343 342 343 340 338 333 323 300 276 254 260 265 257 244
211 210 194 201 218 228 233 184 193 203 220 211 190 206 207 197 193 165 204 215 234 219 210 203 192 182 177 170 162 159 161 160 158 141 32 348 338 333 329 327 326 323 321 321 322 323 321 318 310 297 281 257 253 246
195 178 194 209 209 208 168 193 201 205 207 196 203 213 207 183 167 213 231 214 213 205 194 182 175 169 169 172 176 178 173 166 162 156 330 326 316 312 311 307 307 307 305 305 308 308 312 315 315 312 305 290 273 253
167 193 210 208 198 186 181 179 189 203 218 184 183 183 192 183 203 221 226 226 207 197 189 184 185 185 183 184 179 174 172 177 199 258 299 309 307 308 305 303 299 295 296 300 302 306 308 309 307 305 300 299 294 272
198 203 200 201 179 176 171 172 194 209 173 172 193 127 166 182 228 239 217 224 203 195 191 185 179 178 180 180 174 176 186 201 247 274 295 299 304 302 300 300 303 299 290 298 308 306 305 305 304 302 298 293 293 291
214 195 161 155 151 130 129 125 137 158 178 186 160 154 160 202 227 241 289 265 224 209 186 179 177 175 169 164 166 186 228 262 248 256 279 297 300 303 298 293 290 288 298 305 305 302 301 302 301 300 297 293 284 283
171 167 159 154 138 157 142 164 176 184 173 160 151 185 190 209 234 358 272 204 176 153 159 162 159 155 159 170 196 228 243 249 262 282 287 279 289 302 297 295 295 296 298 301 304 304 302 300 299 297 294 291 288 283
138 149 137 140 131 164 189 185 200 187 165 169 180 190 211 207 206 125 137 145 148 156 163 168 172 181 196 219 230 234 233 239 244 248 260 277 286 293 293 305 305 308 306 303 303 305 304 301 300 297 293 289 287 286
143 157 124 156 162 180 159 194 162 142 149 157 146 139 145 139 176 168 166 164 163 167 171 177 194 216 229 225 228 236 240 250 257 258 272 284 291 302 308 312 316 317 319 320 319 318 315 310 306 302 294 286 284 284
96 109 90 76 73 45 86 119 124 127 133 138 158 185 162 142 188 192 186 182 184 187 197 215 232 232 218 222 226 228 237 250 261 270 280 290 300 310 316 319 321 323 325 325 326 326 326 325 321 314 305 293 289 287
36 50 97 93 87 65 81 74 98 105 81 149 108 118 140 168 180 204 213 214 218 226 234 233 226 216 210 210 216 227 242 255 263 270 281 301 312 314 319 325 328 330 331 331 332 335 340 344 343 337 328 322 327 312
59 59 79 105 128 148 95 137 100 107 100 109 96 84 161 198 207 237 209 202 204 197 198 196 190 188 193 200 212 224 229 233 242 260 284 307 319 332 344 348 350 351 351 353 360 12 22 29 35 43 57 72 81 90